Content
SEND FEEDBACK

Daily
Averages
Monthly
Summary
United States of America

WINSTON-SALEM, NORTH CAROLINA


Home > North America > United States > North Carolina
Elevation: 965 feet     Latitude: 36 01N     Longitude: 080 13W

WEATHER
 
SELECT A DAY
Number of Records: 186,791;   Date Range: 1/1/95 - 9/20/14
 
SHARE

PRINT THIS DATA

[ ← Previous Day ]
WEATHER ALMANAC - JUNE 18, 2014
[ Next Day → ]
[ °C ]   °F
Weather ElementAverageHighLow
Temperature82.1 °F91.9 °F (2:54 pm)72 °F (5:54 am)
Dewpoint65.5 °F68 °F (7:54 am)60.1 °F (3:54 pm)
Humidity59.3 %84 % (5:54 am)34 % (3:54 pm)
Barometer30.09 in30.13 in (9:54 am)30.05 in (5:54 pm)
Wind Speed4.8 mph9.2 mph (4:54 pm)
Wind Gust21.9 mph (6:54 pm)
Weather ElementAverage
Visibility9.7 mi
Wind DirectionSSE (151.7 °)

Weather ElementTotal
Precipitation---
Cooling Degree Days17 (Base 65)
Growing Degree Days32 (Base 50)
Averaged from 23 records on June 18, 2014
WEATHER CONDITIONS BREAKOUT
WIND DIRECTION BREAKOUT
WEATHER BY HOUR - JUNE 18, 2014
[ °C ]   °F
Local TimeTemperatureDewpointHumidityBarometerVisibilityWind DirectionWind SpeedGust SpeedPrecipitationEventsConditions
1:54 AM75.0 °F66.9 °F76 %30.09 in10.0 miSW (220°)3.5 mphClear
2:54 AM73.9 °F66.9 °F79 %30.09 in10.0 miSW (220°)3.5 mphClear
3:54 AM73.0 °F66.9 °F81 %30.08 in10.0 miCalmClear
4:54 AM73.0 °F66.9 °F81 %30.09 in10.0 miWest (260°)3.5 mphClear
5:54 AM72.0 °F66.9 °F84 %30.10 in10.0 miCalmClear
6:54 AM73.0 °F66.9 °F81 %30.11 in7.0 miCalmClear
7:54 AM75.0 °F68.0 °F79 %30.12 in8.0 miWest (270°)5.8 mphClear
8:54 AM78.1 °F68.0 °F71 %30.12 in9.0 miWSW (240°)3.5 mphClear
9:54 AM82.9 °F66.0 °F56 %30.13 in10.0 miVariable4.6 mphClear
10:54 AM86.0 °F66.9 °F53 %30.12 in10.0 miVariable3.5 mphClear
11:54 AM88.0 °F68.0 °F51 %30.12 in10.0 miVariable3.5 mphClear
12:54 PM90.0 °F68.0 °F48 %30.11 in10.0 miNW (310°)8.1 mphClear
1:54 PM91.0 °F64.9 °F42 %30.09 in10.0 miWSW (250°)5.8 mphClear
2:54 PM91.9 °F63.0 °F38 %30.07 in10.0 miVariable5.8 mphPartly Cloudy
3:54 PM91.9 °F60.1 °F34 %30.06 in10.0 miWest (260°)6.9 mphScattered Clouds
4:54 PM91.9 °F64.0 °F39 %30.06 in10.0 miWSW (240°)9.2 mphScattered Clouds
5:54 PM91.0 °F64.9 °F42 %30.05 in10.0 miVariable5.8 mphClear
6:54 PM87.1 °F64.0 °F46 %30.05 in10.0 miWest (260°)9.2 mph21.9 mphClear
7:54 PM84.9 °F62.1 °F46 %30.06 in10.0 miWSW (240°)8.1 mphClear
8:54 PM82.0 °F63.0 °F52 %30.07 in10.0 miWSW (250°)5.8 mphClear
9:54 PM80.1 °F63.0 °F56 %30.08 in10.0 miSW (230°)5.8 mphClear
10:54 PM79.0 °F64.9 °F62 %30.09 in10.0 miWSW (240°)5.8 mphClear
11:54 PM78.1 °F66.0 °F66 %30.09 in10.0 miVariable3.5 mphClear
Hourly data recorded from KINT, located miles away from Winston-Salem, North Carolina







STORIES FROM OUR PARTNERS